Wind_Speed
51 50 50 49 48 46 44 42 39 37 34 32 30 28 27 26 27 27 28 28 27 27 26 26 26 26 28 30 31 32 33 34 34 34 34 33 31 30 29 29 29 29 29
56 56 56 56 54 52 50 47 43 40 37 34 31 29 28 27 27 27 28 28 28 27 26 25 25 24 25 27 29 31 32 33 33 33 33 32 31 29 29 28 29 29 28
62 62 62 62 60 58 55 52 49 45 42 38 34 32 30 29 28 28 28 28 28 27 26 25 24 24 24 25 26 28 29 30 31 31 31 31 30 30 29 29 28 29 28
67 68 68 68 67 65 63 59 55 52 48 43 39 36 34 32 30 29 29 29 28 27 26 25 23 22 23 24 24 25 26 27 27 27 28 29 29 29 29 29 29 27 27
73 74 74 75 74 72 69 66 62 58 53 48 44 41 38 35 33 31 31 30 28 27 25 24 22 21 21 21 21 23 24 25 26 27 27 28 28 28 28 27 27 25 24
80 80 80 81 81 78 74 70 67 63 59 55 50 47 43 40 37 34 33 32 29 27 26 24 22 21 20 21 22 24 25 25 25 26 27 27 28 27 26 25 23 21 20
84 84 85 85 85 84 81 78 75 71 67 61 55 52 48 45 41 37 35 34 31 28 26 24 23 21 21 21 22 23 25 25 25 26 26 27 27 25 23 21 20 19 17
69 72 75 79 80 81 81 80 78 76 72 67 62 57 53 49 45 40 38 35 32 29 26 24 22 22 20 20 21 22 24 24 24 24 23 22 22 21 19 18 17 16 16
47 49 52 56 60 64 67 69 71 72 71 68 63 58 55 50 46 42 39 37 33 30 27 24 22 21 20 19 20 20 20 20 20 19 19 18 18 17 17 16 15 14 13
41 41 40 41 43 46 49 53 56 59 62 62 60 56 53 49 45 42 40 37 34 30 27 24 21 21 21 20 21 21 20 19 18 17 17 17 17 16 15 14 13 12 11
42 40 38 36 35 34 35 37 40 44 48 53 54 52 50 48 45 43 40 37 34 30 27 24 22 21 21 20 21 21 20 19 18 17 17 16 15 14 13 12 11 11 10
44 41 38 35 33 31 29 28 29 31 35 41 47 50 49 46 45 43 40 37 34 30 27 25 22 21 21 21 20 20 19 18 17 17 16 16 14 13 12 11 11 10 9
44 42 39 36 34 31 28 26 25 26 28 33 43 50 49 46 45 43 39 37 34 30 28 25 23 23 22 22 21 20 19 18 18 17 16 15 14 13 12 11 10 9 8
44 42 41 38 34 31 28 27 25 24 23 27 39 47 50 45 43 42 39 36 32 29 27 25 24 24 24 23 22 21 20 19 18 17 16 15 14 13 11 11 10 9 8
44 43 41 37 34 32 29 27 26 25 24 25 35 45 44 42 42 40 37 34 30 28 26 25 25 25 25 24 23 22 21 20 19 18 16 15 14 13 12 11 11 10 9
41 39 36 36 34 32 30 28 26 25 25 26 32 41 43 42 41 39 37 34 32 29 27 26 26 26 26 25 24 23 21 20 19 18 16 15 14 13 13 13 12 12 11
35 33 31 31 31 31 29 27 26 24 23 24 28 37 42 42 41 40 38 34 32 29 27 26 26 27 26 25 24 23 22 20 19 18 16 16 15 14 14 14 14 14 13
27 25 25 27 28 28 27 26 24 24 23 22 27 34 40 43 42 40 37 34 31 29 28 27 26 27 26 25 24 23 21 20 19 18 17 16 16 16 16 16 16 16 15
18 18 19 24 26 27 26 25 23 23 22 23 28 34 40 43 42 40 36 32 30 28 28 28 27 26 25 24 23 22 21 20 19 18 17 17 17 17 18 18 18 18 17
9 12 17 22 24 25 24 23 23 22 22 25 30 35 41 44 43 39 36 33 31 30 30 28 27 26 25 24 22 22 21 20 19 19 18 18 18 19 19 20 20 20 20
6 11 18 22 23 22 22 22 22 23 24 29 34 38 42 42 39 36 34 32 31 29 28 27 26 25 23 22 22 21 20 20 19 19 18 18 18 19 20 21 21 21 22
11 16 20 21 21 21 21 22 23 25 29 35 38 41 42 39 36 34 32 31 30 28 28 26 25 23 22 21 20 19 19 19 19 19 19 19 19 19 20 21 22 23 23
17 19 20 20 21 22 23 24 27 30 35 37 39 40 40 38 35 33 32 30 29 28 27 25 23 22 20 19 18 17 17 17 18 18 19 19 20 20 21 22 23 23 24
22 22 23 23 24 26 28 29 32 36 37 38 38 38 38 36 34 32 31 29 28 26 25 23 21 20 18 17 16 15 15 16 16 17 18 19 20 21 21 22 22 23 23
27 28 29 29 31 31 32 33 36 38 37 37 36 36 35 33 31 30 29 28 26 24 22 20 18 17 16 15 14 14 14 15 16 17 17 18 19 20 20 21 21 22 22
32 32 32 32 32 32 33 34 35 35 35 34 34 33 31 30 29 28 27 25 23 21 19 17 15 14 14 13 14 14 14 15 16 16 17 17 18 19 20 20 21 21 21
Wind_Direction
275 275 276 276 276 276 277 277 278 280 282 284 287 290 295 299 304 308 312 313 312 308 302 293 284 275 266 260 257 256 256 255 255 255 255 254 252 252 252 252 252 252 253
274 275 275 276 276 276 276 276 277 278 279 281 284 287 291 295 299 303 306 309 308 306 302 293 285 278 268 260 255 252 252 253 252 252 251 248 248 249 247 248 251 252 255
273 274 274 274 274 274 274 274 275 275 275 277 280 283 287 291 295 298 301 304 304 304 301 293 286 277 268 260 254 251 249 249 248 248 246 245 245 244 246 248 252 254 258
272 272 272 272 272 272 272 271 271 271 271 273 276 279 283 287 290 293 295 298 299 299 297 292 285 276 267 260 253 249 248 245 243 244 242 242 243 245 247 249 254 258 259
269 269 269 269 268 268 267 267 267 267 267 269 272 275 279 282 285 288 290 291 293 293 292 289 283 275 268 258 252 248 246 244 243 241 240 241 241 244 245 250 253 254 253
267 266 265 265 263 263 263 262 262 262 264 265 268 271 273 277 279 281 283 284 285 285 284 282 278 272 265 256 253 250 245 239 237 238 239 239 238 238 242 246 247 245 243
270 268 266 265 264 264 264 262 262 262 263 263 264 266 268 272 273 274 276 275 277 277 276 275 271 267 265 258 253 247 240 234 236 237 239 237 236 235 237 238 238 236 239
277 274 271 269 268 266 265 264 263 263 262 261 261 262 263 265 266 266 268 267 268 269 268 267 265 261 257 255 249 243 237 233 235 236 235 234 232 228 230 231 232 235 240
289 284 280 277 273 271 268 265 263 261 259 257 256 255 256 257 258 258 259 259 260 260 259 259 258 253 248 247 243 239 237 234 233 229 228 226 223 223 225 227 227 229 233
296 293 289 285 281 276 271 266 262 259 255 252 249 247 246 247 248 249 250 250 251 251 251 251 250 245 241 241 239 235 231 229 227 224 221 220 218 217 217 219 222 225 231
294 293 291 287 285 280 274 266 260 255 249 243 237 233 233 236 238 239 240 240 241 242 242 242 241 238 235 232 231 228 224 221 217 214 211 209 206 205 207 212 217 224 232
290 288 286 284 281 277 273 266 260 251 243 234 224 217 218 224 229 232 232 232 233 233 233 234 233 231 228 225 223 220 214 210 208 205 201 198 199 202 205 210 216 225 234
287 283 280 278 275 271 266 261 257 252 243 229 215 207 204 210 218 223 224 225 225 225 226 227 226 224 219 216 213 209 205 203 201 197 195 196 199 203 208 213 219 225 231
283 279 275 271 268 264 260 256 254 250 242 227 212 202 198 201 208 215 217 218 218 219 220 220 218 214 209 207 204 202 200 198 195 194 196 198 201 205 209 214 217 220 224
281 277 271 264 259 254 252 250 249 244 236 226 213 203 197 196 199 207 211 209 210 211 213 212 210 208 204 201 198 196 195 194 194 197 199 202 206 210 214 216 219 222 223
281 275 266 257 250 245 243 242 241 237 233 225 219 208 197 192 192 196 198 198 200 203 205 205 203 201 198 195 194 194 195 195 197 200 203 207 211 215 218 221 223 223 227
281 271 259 248 237 232 232 233 232 231 227 222 218 208 198 189 188 188 189 191 194 197 198 197 196 194 191 190 192 194 196 198 201 203 207 211 216 221 224 226 227 228 232
278 264 247 232 222 220 222 224 223 221 218 215 209 201 193 185 183 182 184 188 191 192 193 193 191 190 189 191 193 195 198 202 204 207 212 217 222 227 228 230 232 234 238
273 251 228 214 209 209 212 214 215 215 211 205 199 193 188 183 179 179 182 184 186 188 189 189 189 189 190 191 194 198 202 205 209 213 218 223 227 230 232 235 239 242 246
254 219 201 194 194 198 201 204 205 204 199 195 190 185 182 178 176 178 179 180 183 183 184 185 187 188 190 193 197 201 205 210 214 219 224 229 233 235 238 242 246 250 254
181 175 175 176 180 185 189 192 193 190 187 180 176 175 174 172 173 174 175 177 179 180 182 183 184 186 190 194 199 204 210 215 220 225 230 235 239 243 247 250 254 258 262
135 148 156 163 169 174 177 179 177 174 170 167 167 167 167 167 167 169 173 175 177 179 180 181 183 186 190 195 201 207 214 220 226 231 237 243 247 252 256 259 263 265 267
126 135 144 152 158 160 160 160 159 158 158 160 161 162 162 163 164 168 171 173 176 177 178 179 182 186 191 196 203 211 218 226 232 239 245 250 255 259 263 267 269 270 271
116 123 130 135 138 140 142 144 147 149 152 154 156 158 160 162 165 168 170 172 174 174 175 178 182 187 192 198 206 215 224 232 239 245 250 256 261 265 268 271 273 274 275
107 111 116 120 124 127 132 138 141 144 148 151 154 156 159 161 164 166 168 170 171 173 176 181 186 191 197 205 214 223 230 237 243 250 257 262 266 269 272 275 277 278 279
103 106 109 112 117 122 129 135 139 143 147 150 154 157 159 161 163 166 168 170 173 177 182 187 193 201 211 221 228 233 238 243 247 253 259 265 269 272 275 278 279 281 281
Height
5766 5764 5763 5762 5761 5760 5759 5759 5758 5757 5756 5754 5753 5751 5748 5746 5744 5741 5738 5734 5731 5728 5725 5723 5721 5720 5720 5722 5723 5725 5726 5728 5730 5732 5733 5735 5736 5738 5740 5741 5742 5744 5746
5751 5749 5747 5746 5745 5745 5745 5745 5744 5744 5744 5743 5742 5740 5739 5737 5735 5733 5730 5727 5725 5722 5719 5716 5715 5713 5713 5714 5715 5716 5718 5719 5722 5723 5725 5727 5729 5731 5733 5734 5736 5738 5739
5733 5731 5729 5728 5727 5727 5728 5728 5729 5730 5730 5731 5731 5730 5729 5727 5726 5724 5722 5720 5718 5715 5712 5710 5708 5706 5706 5706 5707 5709 5710 5712 5714 5716 5718 5720 5722 5724 5726 5728 5730 5731 5733
5713 5711 5709 5708 5707 5708 5709 5710 5712 5714 5715 5717 5718 5718 5718 5717 5717 5716 5714 5712 5711 5708 5706 5704 5702 5700 5699 5699 5700 5701 5703 5705 5707 5709 5711 5714 5716 5718 5720 5722 5724 5725 5727
5691 5689 5687 5686 5686 5687 5688 5690 5693 5695 5698 5701 5703 5705 5706 5706 5707 5706 5706 5704 5703 5701 5699 5697 5696 5694 5693 5693 5694 5695 5697 5698 5700 5703 5705 5707 5710 5712 5714 5716 5718 5720 5721
5666 5664 5663 5662 5662 5663 5665 5668 5671 5675 5680 5684 5687 5690 5692 5694 5696 5696 5696 5696 5695 5694 5692 5691 5689 5688 5688 5688 5688 5690 5691 5693 5695 5698 5700 5702 5703 5706 5708 5711 5713 5715 5716
5637 5636 5634 5634 5635 5637 5639 5643 5647 5653 5658 5664 5670 5674 5677 5681 5683 5685 5686 5687 5686 5686 5685 5684 5683 5682 5682 5682 5683 5684 5686 5688 5690 5693 5695 5696 5698 5700 5703 5705 5708 5710 5712
5608 5607 5606 5605 5607 5609 5612 5616 5621 5627 5635 5643 5650 5657 5661 5665 5670 5672 5675 5676 5677 5678 5678 5677 5677 5676 5677 5678 5678 5679 5681 5683 5686 5688 5690 5692 5694 5696 5699 5701 5703 5706 5708
5589 5586 5584 5582 5582 5584 5586 5589 5595 5602 5610 5619 5628 5637 5644 5650 5655 5659 5663 5665 5667 5669 5670 5670 5670 5670 5671 5672 5674 5675 5677 5679 5681 5683 5686 5688 5691 5693 5695 5698 5700 5703 5704
5575 5571 5569 5566 5565 5564 5564 5567 5571 5577 5585 5595 5606 5617 5626 5634 5640 5645 5651 5654 5657 5660 5661 5662 5663 5664 5666 5667 5669 5671 5673 5675 5678 5680 5682 5685 5687 5690 5692 5695 5698 5700 5701
5562 5559 5556 5554 5552 5550 5549 5550 5552 5556 5563 5572 5584 5597 5608 5618 5625 5632 5638 5643 5647 5650 5653 5655 5656 5658 5660 5663 5665 5667 5669 5672 5674 5677 5679 5682 5685 5687 5690 5693 5695 5697 5698
5548 5545 5544 5542 5541 5540 5539 5540 5541 5543 5547 5554 5565 5578 5591 5602 5611 5619 5626 5633 5637 5642 5645 5648 5650 5653 5655 5658 5661 5663 5666 5669 5672 5674 5677 5680 5683 5686 5688 5690 5692 5694 5695
5532 5531 5530 5529 5529 5529 5529 5531 5532 5533 5536 5541 5550 5562 5575 5587 5597 5607 5615 5622 5628 5633 5637 5641 5644 5647 5650 5654 5657 5660 5663 5667 5670 5672 5676 5679 5681 5684 5686 5688 5690 5691 5692
5515 5514 5514 5514 5516 5517 5519 5521 5523 5526 5529 5533 5540 5550 5562 5574 5585 5595 5604 5612 5620 5625 5630 5634 5638 5641 5646 5650 5653 5657 5661 5664 5668 5671 5674 5676 5679 5681 5683 5685 5687 5689 5690
5496 5495 5496 5498 5502 5505 5509 5512 5515 5519 5522 5526 5532 5540 5551 5563 5576 5587 5597 5606 5613 5619 5624 5629 5633 5637 5642 5646 5651 5655 5659 5662 5666 5669 5672 5674 5677 5679 5681 5683 5684 5686 5687
5477 5477 5479 5483 5488 5493 5498 5503 5507 5512 5516 5521 5526 5533 5544 5556 5567 5579 5589 5598 5605 5612 5618 5624 5629 5634 5639 5644 5648 5653 5657 5660 5664 5667 5669 5672 5674 5676 5678 5680 5681 5683 5684
5460 5461 5463 5468 5475 5482 5488 5495 5500 5506 5510 5516 5521 5529 5539 5551 5563 5573 5583 5592 5600 5607 5614 5620 5625 5631 5636 5641 5646 5651 5655 5658 5661 5664 5667 5669 5672 5674 5675 5677 5679 5680 5681
5446 5447 5451 5456 5465 5473 5481 5488 5494 5500 5506 5511 5518 5526 5536 5548 5559 5570 5579 5587 5595 5603 5611 5617 5623 5628 5634 5639 5644 5648 5652 5656 5659 5662 5665 5667 5669 5671 5672 5674 5675 5676 5677
5436 5438 5442 5449 5458 5467 5475 5482 5489 5495 5502 5508 5515 5524 5534 5545 5557 5567 5577 5586 5594 5601 5608 5615 5621 5627 5632 5637 5642 5646 5650 5654 5657 5659 5662 5664 5666 5667 5669 5670 5672 5672 5673
5431 5434 5439 5446 5455 5463 5471 5479 5485 5492 5498 5506 5514 5523 5534 5545 5556 5566 5575 5584 5592 5599 5606 5613 5619 5625 5630 5635 5640 5644 5648 5651 5654 5656 5658 5660 5662 5664 5665 5666 5667 5668 5668
5430 5434 5439 5446 5454 5462 5470 5477 5484 5490 5497 5505 5515 5525 5537 5548 5559 5568 5577 5585 5592 5599 5606 5612 5618 5623 5628 5633 5638 5641 5645 5648 5650 5653 5655 5657 5658 5660 5661 5662 5662 5662 5662
5433 5437 5443 5450 5457 5464 5470 5477 5484 5491 5499 5508 5519 5529 5540 5551 5561 5570 5578 5586 5593 5600 5606 5612 5617 5622 5627 5631 5635 5639 5642 5645 5647 5649 5651 5653 5654 5655 5656 5656 5657 5656 5656
5440 5444 5449 5455 5461 5467 5473 5480 5487 5495 5504 5515 5525 5535 5545 5554 5564 5572 5580 5587 5594 5600 5606 5612 5617 5622 5626 5630 5633 5636 5639 5641 5644 5645 5647 5649 5650 5650 5650 5650 5650 5650 5649
5450 5454 5458 5462 5467 5474 5480 5487 5495 5504 5513 5523 5532 5542 5551 5559 5567 5574 5582 5589 5595 5601 5607 5612 5616 5621 5624 5628 5631 5633 5636 5638 5640 5641 5642 5643 5644 5644 5644 5644 5644 5643 5642
5463 5466 5469 5474 5479 5485 5491 5498 5505 5514 5523 5531 5540 5548 5556 5564 5571 5578 5585 5591 5597 5602 5607 5612 5616 5619 5623 5625 5628 5630 5632 5634 5635 5636 5637 5638 5638 5638 5638 5638 5637 5636 5635
5478 5480 5484 5488 5492 5498 5504 5510 5518 5525 5533 5540 5547 5555 5562 5569 5575 5582 5588 5594 5599 5603 5608 5612 5615 5618 5620 5623 5624 5626 5628 5629 5631 5632 5632 5633 5633 5633 5632 5631 5630 5629 5628